Saint Bonnet de Bellac- Haute Vienne - France
Donnes mto: dimanche, 18/12/2011
Date Horaire Temp. E. Hum. E. P.atmo. Pluie Vent Direction Direction Ensoleilleme Solaire P. de rose Temp au vent Rafales
18/12/2011 00:00 0,6 C 94 % 1015,0 hPa 0,0 mm 0,0 km/h (0 Bft) SO 225 0 min 0 W/m -0,3 C 0,6 C 0,0 km/h (0 Bft)
18/12/2011 00:05 0,4 C 94 % 1015,0 hPa 0,0 mm 0,0 km/h (0 Bft) O-SO 247 0 min 0 W/m -0,5 C 0,4 C 0,0 km/h (0 Bft)
18/12/2011 00:10 0,4 C 94 % 1015,0 hPa 0,0 mm 0,0 km/h (0 Bft) O-SO 247 0 min 0 W/m -0,5 C 0,4 C 0,0 km/h (0 Bft)
18/12/2011 00:15 0,4 C 94 % 1015,0 hPa 0,0 mm 0,7 km/h (0 Bft) O-NO 292 0 min 0 W/m -0,5 C 0,4 C 3,2 km/h (1 Bft)
18/12/2011 00:20 0,4 C 94 % 1015,1 hPa 0,0 mm 0,0 km/h (0 Bft) O-SO 247 0 min 0 W/m -0,5 C 0,4 C 0,0 km/h (0 Bft)
18/12/2011 00:25 0,4 C 94 % 1015,0 hPa 0,0 mm 1,4 km/h (1 Bft) SO 225 0 min 0 W/m -0,5 C 0,4 C 4,0 km/h (1 Bft)
18/12/2011 00:30 0,4 C 94 % 1015,0 hPa 0,0 mm 0,0 km/h (0 Bft) O-SO 247 0 min 0 W/m -0,5 C 0,4 C 0,0 km/h (0 Bft)
18/12/2011 00:35 0,4 C 94 % 1015,0 hPa 0,0 mm 0,0 km/h (0 Bft) O-SO 247 0 min 0 W/m -0,5 C 0,4 C 0,0 km/h (0 Bft)
18/12/2011 00:40 0,5 C 94 % 1014,9 hPa 0,0 mm 1,1 km/h (1 Bft) O-SO 247 0 min 0 W/m -0,4 C 0,5 C 4,0 km/h (1 Bft)
18/12/2011 00:45 0,5 C 95 % 1015,0 hPa 0,0 mm 0,0 km/h (0 Bft) O 270 0 min 0 W/m -0,2 C 0,5 C 0,0 km/h (0 Bft)
18/12/2011 00:50 0,5 C 95 % 1015,1 hPa 0,0 mm 0,0 km/h (0 Bft) O-SO 247 0 min 0 W/m -0,2 C 0,5 C 0,0 km/h (0 Bft)
18/12/2011 00:55 0,5 C 94 % 1015,2 hPa 0,0 mm 0,0 km/h (0 Bft) SO 225 0 min 0 W/m -0,4 C 0,5 C 0,0 km/h (0 Bft)
18/12/2011 01:00 0,5 C 94 % 1015,2 hPa 0,0 mm 0,4 km/h (0 Bft) O 270 0 min 0 W/m -0,4 C 0,5 C 0,4 km/h (0 Bft)
18/12/2011 01:05 0,5 C 94 % 1015,2 hPa 0,0 mm 0,0 km/h (0 Bft) O-SO 247 0 min 0 W/m -0,4 C 0,5 C 0,0 km/h (0 Bft)
18/12/2011 01:10 0,5 C 94 % 1015,2 hPa 0,0 mm 0,0 km/h (0 Bft) O-SO 247 0 min 0 W/m -0,4 C 0,5 C 0,0 km/h (0 Bft)
18/12/2011 01:15 0,4 C 95 % 1015,1 hPa 0,0 mm 0,0 km/h (0 Bft) O-SO 247 0 min 0 W/m -0,3 C 0,4 C 0,0 km/h (0 Bft)
18/12/2011 01:20 0,4 C 95 % 1015,1 hPa 0,0 mm 0,0 km/h (0 Bft) O 270 0 min 0 W/m -0,3 C 0,4 C 0,0 km/h (0 Bft)
18/12/2011 01:25 0,4 C 95 % 1015,1 hPa 0,0 mm 0,0 km/h (0 Bft) O 270 0 min 0 W/m -0,3 C 0,4 C 0,0 km/h (0 Bft)
18/12/2011 01:30 0,4 C 95 % 1015,0 hPa 0,0 mm 0,0 km/h (0 Bft) O 270 0 min 0 W/m -0,3 C 0,4 C 0,0 km/h (0 Bft)
18/12/2011 01:35 0,3 C 94 % 1015,0 hPa 0,0 mm 0,0 km/h (0 Bft) N 360 0 min 0 W/m -0,5 C 0,3 C 0,0 km/h (0 Bft)
18/12/2011 01:40 0,3 C 95 % 1015,0 hPa 0,0 mm 0,0 km/h (0 Bft) O 270 0 min 0 W/m -0,4 C 0,3 C 0,0 km/h (0 Bft)
18/12/2011 01:45 0,2 C 94 % 1015,1 hPa 0,0 mm 0,0 km/h (0 Bft) O-SO 247 0 min 0 W/m -0,6 C 0,2 C 0,0 km/h (0 Bft)
18/12/2011 01:50 0,2 C 94 % 1015,1 hPa 0,0 mm 0,0 km/h (0 Bft) O-SO 247 0 min 0 W/m -0,6 C 0,2 C 0,0 km/h (0 Bft)
18/12/2011 01:55 0,1 C 94 % 1015,0 hPa 0,0 mm 0,0 km/h (0 Bft) SO 225 0 min 0 W/m -0,7 C 0,1 C 0,0 km/h (0 Bft)
18/12/2011 02:02 0,1 C 94 % 1015,1 hPa 0,0 mm 0,0 km/h (0 Bft) S-SO 202 0 min 0 W/m -0,7 C 0,1 C 0,0 km/h (0 Bft)
18/12/2011 02:05 0,1 C 94 % 1015,2 hPa 0,0 mm 0,0 km/h (0 Bft) O-SO 247 0 min 0 W/m -0,7 C 0,1 C 0,0 km/h (0 Bft)
18/12/2011 02:10 0,1 C 94 % 1015,3 hPa 0,0 mm 0,0 km/h (0 Bft) O-SO 247 0 min 0 W/m -0,7 C 0,1 C 0,0 km/h (0 Bft)
18/12/2011 02:15 0,0 C 94 % 1015,2 hPa 0,0 mm 0,0 km/h (0 Bft) O-SO 247 0 min 0 W/m -0,8 C 0,0 C 0,0 km/h (0 Bft)
18/12/2011 02:20 -0,1 C 94 % 1015,2 hPa 0,0 mm 0,0 km/h (0 Bft) O-SO 247 0 min 0 W/m -0,9 C -0,1 C 0,0 km/h (0 Bft)
18/12/2011 02:25 -0,1 C 94 % 1015,3 hPa 0,0 mm 0,0 km/h (0 Bft) SO 225 0 min 0 W/m -0,9 C -0,1 C 0,0 km/h (0 Bft)
18/12/2011 02:30 -0,1 C 94 % 1015,2 hPa 0,0 mm 0,4 km/h (0 Bft) SO 225 0 min 0 W/m -0,9 C -0,1 C 2,9 km/h (1 Bft)
18/12/2011 02:35 0,0 C 94 % 1015,3 hPa 0,0 mm 0,4 km/h (0 Bft) SO 225 0 min 0 W/m -0,8 C 0,0 C 0,4 km/h (0 Bft)
18/12/2011 02:40 0,1 C 94 % 1015,3 hPa 0,0 mm 0,0 km/h (0 Bft) S-SO 202 0 min 0 W/m -0,7 C 0,1 C 0,0 km/h (0 Bft)
18/12/2011 02:45 0,1 C 94 % 1015,3 hPa 0,0 mm 0,7 km/h (0 Bft) S-SO 202 0 min 0 W/m -0,7 C 0,1 C 0,7 km/h (0 Bft)
18/12/2011 02:50 0,0 C 94 % 1015,5 hPa 0,0 mm 0,0 km/h (0 Bft) S-SO 202 0 min 0 W/m -0,8 C 0,0 C 0,0 km/h (0 Bft)
18/12/2011 02:55 -0,1 C 94 % 1015,5 hPa 0,0 mm 0,0 km/h (0 Bft) O-SO 247 0 min 0 W/m -0,9 C -0,1 C 0,0 km/h (0 Bft)
18/12/2011 03:00 -0,2 C 94 % 1015,6 hPa 0,0 mm 0,0 km/h (0 Bft) SO 225 0 min 0 W/m -1,0 C -0,2 C 2,9 km/h (1 Bft)
18/12/2011 03:05 -0,2 C 94 % 1015,6 hPa 0,0 mm 0,0 km/h (0 Bft) SO 225 0 min 0 W/m -1,0 C -0,2 C 3,2 km/h (1 Bft)
18/12/2011 03:10 -0,2 C 94 % 1015,7 hPa 0,0 mm 0,0 km/h (0 Bft) SO 225 0 min 0 W/m -1,0 C -0,2 C 0,0 km/h (0 Bft)
18/12/2011 03:15 -0,2 C 94 % 1015,7 hPa 0,0 mm 0,0 km/h (0 Bft) S-SO 202 0 min 0 W/m -1,0 C -0,2 C 0,0 km/h (0 Bft)
18/12/2011 03:20 -0,2 C 94 % 1015,8 hPa 0,0 mm 0,0 km/h (0 Bft) S-SO 202 0 min 0 W/m -1,0 C -0,2 C 0,0 km/h (0 Bft)
18/12/2011 03:25 -0,2 C 94 % 1015,8 hPa 0,0 mm 0,0 km/h (0 Bft) SO 225 0 min 0 W/m -1,0 C -0,2 C 0,0 km/h (0 Bft)
18/12/2011 03:30 -0,3 C 94 % 1015,7 hPa 0,0 mm 0,0 km/h (0 Bft) O 270 0 min 0 W/m -1,1 C -0,3 C 0,0 km/h (0 Bft)
18/12/2011 03:35 -0,3 C 94 % 1015,8 hPa 0,0 mm 0,0 km/h (0 Bft) O-SO 247 0 min 0 W/m -1,1 C -0,3 C 0,0 km/h (0 Bft)
18/12/2011 03:40 -0,3 C 94 % 1015,7 hPa 0,0 mm 0,7 km/h (0 Bft) S 180 0 min 0 W/m -1,1 C -0,3 C 0,7 km/h (0 Bft)
18/12/2011 03:45 -0,3 C 94 % 1015,7 hPa 0,0 mm 0,0 km/h (0 Bft) SO 225 0 min 0 W/m -1,1 C -0,3 C 0,0 km/h (0 Bft)
18/12/2011 03:50 -0,3 C 94 % 1015,6 hPa 0,0 mm 0,0 km/h (0 Bft) O 270 0 min 0 W/m -1,1 C -0,3 C 0,0 km/h (0 Bft)
18/12/2011 03:55 -0,4 C 94 % 1015,7 hPa 0,0 mm 0,0 km/h (0 Bft) O 270 0 min 0 W/m -1,2 C -0,4 C 0,0 km/h (0 Bft)
18/12/2011 04:00 -0,4 C 94 % 1015,6 hPa 0,0 mm 0,0 km/h (0 Bft) SO 225 0 min 0 W/m -1,2 C -0,4 C 2,9 km/h (1 Bft)
18/12/2011 04:05 -0,4 C 94 % 1015,6 hPa 0,0 mm 0,0 km/h (0 Bft) N-NO 337 0 min 0 W/m -1,2 C -0,4 C 2,9 km/h (1 Bft)
18/12/2011 04:10 -0,4 C 94 % 1015,6 hPa 0,0 mm 0,0 km/h (0 Bft) SO 225 0 min 0 W/m -1,2 C -0,4 C 0,0 km/h (0 Bft)
18/12/2011 04:15 -0,4 C 94 % 1015,6 hPa 0,0 mm 0,0 km/h (0 Bft) O-NO 292 0 min 0 W/m -1,2 C -0,4 C 0,0 km/h (0 Bft)
18/12/2011 04:20 -0,5 C 94 % 1015,6 hPa 0,0 mm 0,0 km/h (0 Bft) O-NO 292 0 min 0 W/m -1,3 C -0,5 C 0,0 km/h (0 Bft)
18/12/2011 04:25 -0,5 C 94 % 1015,5 hPa 0,0 mm 0,0 km/h (0 Bft) O-NO 292 0 min 0 W/m -1,3 C -0,5 C 0,0 km/h (0 Bft)
18/12/2011 04:30 -0,6 C 94 % 1015,7 hPa 0,0 mm 0,0 km/h (0 Bft) O-NO 292 0 min 0 W/m -1,4 C -0,6 C 0,0 km/h (0 Bft)
18/12/2011 04:35 -0,5 C 94 % 1015,7 hPa 0,0 mm 0,7 km/h (0 Bft) O-NO 292 0 min 0 W/m -1,3 C -0,5 C 7,2 km/h (2 Bft)
18/12/2011 04:40 -0,4 C 94 % 1015,8 hPa 0,0 mm 0,4 km/h (0 Bft) O-NO 292 0 min 0 W/m -1,2 C -0,4 C 1,4 km/h (1 Bft)
18/12/2011 04:45 -0,2 C 94 % 1015,8 hPa 0,0 mm 0,7 km/h (0 Bft) O-NO 292 0 min 0 W/m -1,0 C -0,2 C 0,7 km/h (0 Bft)
18/12/2011 04:50 -0,2 C 94 % 1015,8 hPa 0,0 mm 0,0 km/h (0 Bft) O-NO 292 0 min 0 W/m -1,0 C -0,2 C 0,0 km/h (0 Bft)
18/12/2011 04:55 -0,1 C 94 % 1015,7 hPa 0,0 mm 0,7 km/h (0 Bft) O 270 0 min 0 W/m -0,9 C -0,1 C 0,7 km/h (0 Bft)
18/12/2011 05:00 0,0 C 95 % 1015,6 hPa 0,0 mm 0,0 km/h (0 Bft) O 270 0 min 0 W/m -0,7 C 0,0 C 6,8 km/h (2 Bft)
18/12/2011 05:05 0,1 C 95 % 1015,7 hPa 0,0 mm 0,7 km/h (0 Bft) S-SO 202 0 min 0 W/m -0,6 C 0,1 C 7,2 km/h (2 Bft)
18/12/2011 05:10 0,2 C 94 % 1015,6 hPa 0,0 mm 0,7 km/h (0 Bft) O 270 0 min 0 W/m -0,6 C 0,2 C 0,7 km/h (0 Bft)
18/12/2011 05:15 0,2 C 94 % 1015,7 hPa 0,0 mm 0,0 km/h (0 Bft) O 270 0 min 0 W/m -0,6 C 0,2 C 0,0 km/h (0 Bft)
18/12/2011 05:20 0,3 C 94 % 1015,7 hPa 0,0 mm 0,4 km/h (0 Bft) O-NO 292 0 min 0 W/m -0,5 C 0,3 C 4,0 km/h (1 Bft)
18/12/2011 05:25 0,2 C 94 % 1015,7 hPa 0,0 mm 0,7 km/h (0 Bft) O-NO 292 0 min 0 W/m -0,6 C 0,2 C 4,0 km/h (1 Bft)
18/12/2011 05:30 0,2 C 94 % 1015,8 hPa 0,0 mm 1,4 km/h (1 Bft) O-NO 292 0 min 0 W/m -0,6 C 0,2 C 6,8 km/h (2 Bft)
18/12/2011 05:35 0,2 C 94 % 1015,9 hPa 0,0 mm 0,4 km/h (0 Bft) O-NO 292 0 min 0 W/m -0,6 C 0,2 C 0,4 km/h (0 Bft)
18/12/2011 05:40 0,2 C 94 % 1015,8 hPa 0,0 mm 1,4 km/h (1 Bft) O-NO 292 0 min 0 W/m -0,6 C 0,2 C 3,6 km/h (1 Bft)
18/12/2011 05:45 0,2 C 94 % 1015,9 hPa 0,0 mm 0,0 km/h (0 Bft) O-NO 292 0 min 0 W/m -0,6 C 0,2 C 0,0 km/h (0 Bft)
18/12/2011 05:50 0,2 C 94 % 1016,0 hPa 0,0 mm 0,0 km/h (0 Bft) O-NO 292 0 min 0 W/m -0,6 C 0,2 C 3,2 km/h (1 Bft)
18/12/2011 05:55 0,2 C 94 % 1016,1 hPa 0,0 mm 0,0 km/h (0 Bft) O-NO 292 0 min 0 W/m -0,6 C 0,2 C 0,0 km/h (0 Bft)
18/12/2011 06:00 0,1 C 94 % 1016,1 hPa 0,0 mm 0,0 km/h (0 Bft) O-NO 292 0 min 0 W/m -0,7 C 0,1 C 0,0 km/h (0 Bft)
18/12/2011 06:05 0,1 C 94 % 1016,1 hPa 0,0 mm 0,0 km/h (0 Bft) O-NO 292 0 min 0 W/m -0,7 C 0,1 C 0,0 km/h (0 Bft)
18/12/2011 06:10 0,1 C 94 % 1016,1 hPa 0,0 mm 0,0 km/h (0 Bft) O-NO 292 0 min 0 W/m -0,7 C 0,1 C 4,0 km/h (1 Bft)
18/12/2011 06:15 0,0 C 94 % 1016,2 hPa 0,0 mm 0,0 km/h (0 Bft) O-NO 292 0 min 0 W/m -0,8 C 0,0 C 0,0 km/h (0 Bft)
18/12/2011 06:20 0,0 C 94 % 1016,1 hPa 0,0 mm 0,4 km/h (0 Bft) O-NO 292 0 min 0 W/m -0,8 C 0,0 C 0,4 km/h (0 Bft)
18/12/2011 06:25 -0,1 C 94 % 1016,1 hPa 0,0 mm 0,4 km/h (0 Bft) O-NO 292 0 min 0 W/m -0,9 C -0,1 C 3,6 km/h (1 Bft)
18/12/2011 06:30 -0,1 C 94 % 1016,1 hPa 0,0 mm 2,2 km/h (1 Bft) O-NO 292 0 min 0 W/m -0,9 C -0,1 C 7,9 km/h (2 Bft)
18/12/2011 06:35 -0,1 C 95 % 1016,2 hPa 0,0 mm 0,0 km/h (0 Bft) O-NO 292 0 min 0 W/m -0,8 C -0,1 C 0,0 km/h (0 Bft)
18/12/2011 06:40 0,0 C 95 % 1016,2 hPa 0,0 mm 1,8 km/h (1 Bft) O-NO 292 0 min 0 W/m -0,7 C 0,0 C 5,8 km/h (2 Bft)
18/12/2011 06:45 0,0 C 95 % 1016,2 hPa 0,0 mm 0,0 km/h (0 Bft) O-NO 292 0 min 0 W/m -0,7 C 0,0 C 0,0 km/h (0 Bft)
18/12/2011 06:50 0,0 C 95 % 1016,4 hPa 0,0 mm 0,0 km/h (0 Bft) O-NO 292 0 min 0 W/m -0,7 C 0,0 C 0,0 km/h (0 Bft)
18/12/2011 06:55 0,1 C 95 % 1016,4 hPa 0,0 mm 0,0 km/h (0 Bft) O-NO 292 0 min 0 W/m -0,6 C 0,1 C 0,0 km/h (0 Bft)
18/12/2011 07:00 0,0 C 95 % 1016,5 hPa 0,0 mm 0,0 km/h (0 Bft) O-NO 292 0 min 0 W/m -0,7 C 0,0 C 0,0 km/h (0 Bft)
18/12/2011 07:05 -0,1 C 95 % 1016,5 hPa 0,0 mm 0,7 km/h (0 Bft) O-NO 292 0 min 0 W/m -0,8 C -0,1 C 4,3 km/h (1 Bft)
18/12/2011 07:10 -0,1 C 95 % 1016,5 hPa 0,0 mm 0,0 km/h (0 Bft) O-NO 292 0 min 0 W/m -0,8 C -0,1 C 0,0 km/h (0 Bft)
18/12/2011 07:15 -0,1 C 95 % 1016,6 hPa 0,0 mm 0,0 km/h (0 Bft) O-NO 292 0 min 0 W/m -0,8 C -0,1 C 0,0 km/h (0 Bft)
18/12/2011 07:20 -0,1 C 95 % 1016,5 hPa 0,0 mm 0,0 km/h (0 Bft) O-NO 292 0 min 0 W/m -0,8 C -0,1 C 0,0 km/h (0 Bft)
18/12/2011 07:25 -0,2 C 95 % 1016,4 hPa 0,0 mm 0,0 km/h (0 Bft) O-NO 292 0 min 0 W/m -0,9 C -0,2 C 0,0 km/h (0 Bft)
18/12/2011 07:30 -0,2 C 95 % 1016,5 hPa 0,0 mm 0,0 km/h (0 Bft) O-NO 292 0 min 0 W/m -0,9 C -0,2 C 0,0 km/h (0 Bft)
18/12/2011 07:35 -0,2 C 95 % 1016,5 hPa 0,0 mm 0,0 km/h (0 Bft) O-NO 292 0 min 0 W/m -0,9 C -0,2 C 0,0 km/h (0 Bft)
18/12/2011 07:40 -0,3 C 95 % 1016,6 hPa 0,0 mm 0,0 km/h (0 Bft) O-NO 292 0 min 0 W/m -1,0 C -0,3 C 0,0 km/h (0 Bft)
18/12/2011 07:45 -0,3 C 95 % 1016,6 hPa 0,0 mm 0,0 km/h (0 Bft) O-NO 292 0 min 0 W/m -1,0 C -0,3 C 0,0 km/h (0 Bft)
18/12/2011 07:50 -0,4 C 95 % 1016,7 hPa 0,0 mm 0,0 km/h (0 Bft) O-NO 292 0 min 0 W/m -1,1 C -0,4 C 0,0 km/h (0 Bft)
18/12/2011 07:55 -0,4 C 95 % 1016,8 hPa 0,0 mm 0,0 km/h (0 Bft) O-NO 292 0 min 0 W/m -1,1 C -0,4 C 0,0 km/h (0 Bft)
18/12/2011 08:00 -0,4 C 95 % 1016,8 hPa 0,0 mm 2,5 km/h (1 Bft) O-NO 292 0 min 0 W/m -1,1 C -0,4 C 4,3 km/h (1 Bft)
18/12/2011 08:05 -0,2 C 95 % 1017,0 hPa 0,0 mm 0,0 km/h (0 Bft) O-NO 292 0 min 0 W/m -0,9 C -0,2 C 0,0 km/h (0 Bft)
18/12/2011 08:10 -0,2 C 95 % 1016,9 hPa 0,0 mm 1,8 km/h (1 Bft) O-NO 292 0 min 0 W/m -0,9 C -0,2 C 4,0 km/h (1 Bft)
18/12/2011 08:15 -0,1 C 95 % 1017,1 hPa 0,0 mm 0,0 km/h (0 Bft) O-NO 292 0 min 0 W/m -0,8 C -0,1 C 0,0 km/h (0 Bft)
18/12/2011 08:20 -0,1 C 95 % 1017,2 hPa 0,0 mm 0,0 km/h (0 Bft) O-NO 292 0 min 0 W/m -0,8 C -0,1 C 0,0 km/h (0 Bft)
18/12/2011 08:25 -0,2 C 95 % 1017,3 hPa 0,0 mm 0,0 km/h (0 Bft) O-NO 292 0 min 0 W/m -0,9 C -0,2 C 3,2 km/h (1 Bft)
18/12/2011 08:30 -0,2 C 95 % 1017,3 hPa 0,0 mm 0,0 km/h (0 Bft) O-NO 292 0 min 0 W/m -0,9 C -0,2 C 0,0 km/h (0 Bft)
18/12/2011 08:35 -0,2 C 95 % 1017,3 hPa 0,0 mm 0,0 km/h (0 Bft) O-NO 292 0 min 0 W/m -0,9 C -0,2 C 0,0 km/h (0 Bft)
18/12/2011 08:40 -0,3 C 95 % 1017,4 hPa 0,0 mm 1,8 km/h (1 Bft) O-NO 292 0 min 0 W/m -1,0 C -0,3 C 4,3 km/h (1 Bft)
18/12/2011 08:45 -0,2 C 95 % 1017,4 hPa 0,0 mm 0,0 km/h (0 Bft) O-NO 292 0 min 0 W/m -0,9 C -0,2 C 3,6 km/h (1 Bft)
18/12/2011 08:50 -0,3 C 95 % 1017,4 hPa 0,0 mm 0,0 km/h (0 Bft) O-NO 292 0 min 0 W/m -1,0 C -0,3 C 0,0 km/h (0 Bft)
18/12/2011 08:55 -0,3 C 95 % 1017,5 hPa 0,0 mm 0,0 km/h (0 Bft) O-NO 292 0 min 0 W/m -1,0 C -0,3 C 0,0 km/h (0 Bft)
18/12/2011 09:00 -0,3 C 95 % 1017,5 hPa 0,0 mm 0,0 km/h (0 Bft) O-NO 292 0 min 0 W/m -1,0 C -0,3 C 0,0 km/h (0 Bft)
18/12/2011 09:05 -0,3 C 95 % 1017,6 hPa 0,0 mm 0,0 km/h (0 Bft) O-NO 292 0 min 0 W/m -1,0 C -0,3 C 0,0 km/h (0 Bft)
18/12/2011 09:10 -0,3 C 95 % 1017,7 hPa 0,0 mm 0,0 km/h (0 Bft) O-NO 292 0 min 0 W/m -1,0 C -0,3 C 0,0 km/h (0 Bft)
18/12/2011 09:15 -0,2 C 95 % 1017,8 hPa 0,0 mm 0,0 km/h (0 Bft) O-NO 292 0 min 0 W/m -0,9 C -0,2 C 3,6 km/h (1 Bft)
18/12/2011 09:20 -0,1 C 95 % 1017,7 hPa 0,0 mm 0,4 km/h (0 Bft) O-NO 292 0 min 0 W/m -0,8 C -0,1 C 3,2 km/h (1 Bft)
18/12/2011 09:25 0,2 C 95 % 1018,0 hPa 0,0 mm 0,4 km/h (0 Bft) O-NO 292 0 min 0 W/m -0,5 C 0,2 C 2,9 km/h (1 Bft)
18/12/2011 09:30 0,3 C 95 % 1018,0 hPa 0,0 mm 0,4 km/h (0 Bft) O-NO 292 0 min 0 W/m -0,4 C 0,3 C 0,4 km/h (0 Bft)
18/12/2011 09:35 0,3 C 95 % 1018,0 hPa 0,0 mm 0,4 km/h (0 Bft) O-NO 292 0 min 0 W/m -0,4 C 0,3 C 0,4 km/h (0 Bft)
18/12/2011 09:40 0,3 C 95 % 1018,0 hPa 0,0 mm 0,0 km/h (0 Bft) O-NO 292 0 min 0 W/m -0,4 C 0,3 C 0,0 km/h (0 Bft)
18/12/2011 09:45 0,3 C 95 % 1018,1 hPa 0,0 mm 0,4 km/h (0 Bft) O-NO 292 0 min 0 W/m -0,4 C 0,3 C 0,4 km/h (0 Bft)
18/12/2011 09:50 0,3 C 95 % 1018,2 hPa 0,0 mm 1,1 km/h (1 Bft) O-NO 292 0 min 0 W/m -0,4 C 0,3 C 4,7 km/h (1 Bft)
18/12/2011 09:55 0,3 C 95 % 1018,1 hPa 0,0 mm 1,4 km/h (1 Bft) O-NO 292 0 min 0 W/m -0,4 C 0,3 C 1,4 km/h (1 Bft)
18/12/2011 10:00 0,3 C 95 % 1018,2 hPa 0,0 mm 3,2 km/h (1 Bft) O 270 0 min 0 W/m -0,4 C 0,3 C 4,0 km/h (1 Bft)
18/12/2011 10:05 0,3 C 95 % 1018,3 hPa 0,0 mm 0,4 km/h (0 Bft) O 270 0 min 0 W/m -0,4 C 0,3 C 0,4 km/h (0 Bft)
18/12/2011 10:10 0,4 C 95 % 1018,4 hPa 0,0 mm 0,0 km/h (0 Bft) O 270 0 min 0 W/m -0,3 C 0,4 C 0,0 km/h (0 Bft)
18/12/2011 10:15 0,4 C 95 % 1018,4 hPa 0,0 mm 0,0 km/h (0 Bft) O 270 0 min 0 W/m -0,3 C 0,4 C 0,0 km/h (0 Bft)
18/12/2011 10:20 0,6 C 96 % 1018,5 hPa 0,0 mm 0,0 km/h (0 Bft) O 270 0 min 0 W/m 0,0 C 0,6 C 3,6 km/h (1 Bft)
18/12/2011 10:25 0,8 C 95 % 1018,5 hPa 0,0 mm 0,0 km/h (0 Bft) O 270 0 min 0 W/m 0,1 C 0,8 C 4,3 km/h (1 Bft)
18/12/2011 10:30 0,8 C 95 % 1018,7 hPa 0,0 mm 0,7 km/h (0 Bft) O 270 0 min 0 W/m 0,1 C 0,8 C 2,9 km/h (1 Bft)
18/12/2011 10:35 0,8 C 95 % 1018,8 hPa 0,0 mm 0,0 km/h (0 Bft) O 270 0 min 0 W/m 0,1 C 0,8 C 0,0 km/h (0 Bft)
18/12/2011 10:40 0,9 C 95 % 1018,8 hPa 0,0 mm 3,6 km/h (1 Bft) O 270 0 min 0 W/m 0,2 C 0,9 C 4,3 km/h (1 Bft)
18/12/2011 10:45 1,4 C 96 % 1018,9 hPa 0,0 mm 3,2 km/h (1 Bft) NO 315 0 min 0 W/m 0,8 C 1,4 C 4,3 km/h (1 Bft)
18/12/2011 10:50 1,8 C 96 % 1019,1 hPa 0,0 mm 2,2 km/h (1 Bft) O-SO 247 0 min 0 W/m 1,2 C 1,8 C 4,3 km/h (1 Bft)
18/12/2011 10:55 2,4 C 96 % 1019,2 hPa 0,0 mm 0,0 km/h (0 Bft) N-NO 337 0 min 0 W/m 1,8 C 2,4 C 0,0 km/h (0 Bft)
18/12/2011 11:00 2,8 C 96 % 1019,2 hPa 0,0 mm 1,1 km/h (1 Bft) NO 315 0 min 0 W/m 2,2 C 2,8 C 4,3 km/h (1 Bft)
18/12/2011 11:05 2,9 C 95 % 1019,4 hPa 0,0 mm 3,6 km/h (1 Bft) NO 315 0 min 0 W/m 2,2 C 2,9 C 8,3 km/h (2 Bft)
18/12/2011 11:10 3,3 C 95 % 1019,4 hPa 0,0 mm 2,5 km/h (1 Bft) O-NO 292 0 min 0 W/m 2,6 C 3,3 C 7,9 km/h (2 Bft)
18/12/2011 11:15 3,6 C 95 % 1019,3 hPa 0,0 mm 1,4 km/h (1 Bft) SO 225 0 min 0 W/m 2,9 C 3,6 C 4,3 km/h (1 Bft)
18/12/2011 11:20 3,8 C 94 % 1019,3 hPa 0,0 mm 5,4 km/h (2 Bft) NO 315 0 min 0 W/m 2,9 C 2,6 C 9,0 km/h (2 Bft)
18/12/2011 11:25 4,1 C 94 % 1019,3 hPa 0,0 mm 0,7 km/h (0 Bft) O-NO 292 0 min 0 W/m 3,2 C 4,1 C 0,7 km/h (0 Bft)
18/12/2011 11:30 4,3 C 93 % 1019,3 hPa 0,0 mm 2,5 km/h (1 Bft) NO 315 0 min 0 W/m 3,3 C 4,3 C 7,2 km/h (2 Bft)
18/12/2011 11:35 4,3 C 92 % 1019,4 hPa 0,0 mm 3,2 km/h (1 Bft) N-NO 337 0 min 0 W/m 3,1 C 4,3 C 7,2 km/h (2 Bft)
18/12/2011 11:40 4,5 C 92 % 1019,3 hPa 0,0 mm 5,0 km/h (1 Bft) N-NO 337 0 min 0 W/m 3,3 C 3,5 C 9,4 km/h (2 Bft)
18/12/2011 11:45 4,8 C 92 % 1019,4 hPa 0,0 mm 5,8 km/h (2 Bft) NO 315 0 min 0 W/m 3,6 C 3,6 C 9,7 km/h (2 Bft)
18/12/2011 11:50 4,9 C 91 % 1019,4 hPa 0,0 mm 0,0 km/h (0 Bft) N-NO 337 0 min 0 W/m 3,6 C 4,9 C 3,2 km/h (1 Bft)
18/12/2011 11:55 5,4 C 91 % 1019,3 hPa 0,0 mm 0,4 km/h (0 Bft) N-NO 337 0 min 0 W/m 4,1 C 5,4 C 3,6 km/h (1 Bft)
18/12/2011 12:00 5,6 C 90 % 1019,3 hPa 0,0 mm 0,7 km/h (0 Bft) NO 315 0 min 0 W/m 4,1 C 5,6 C 2,9 km/h (1 Bft)
18/12/2011 12:05 5,6 C 90 % 1019,4 hPa 0,0 mm 3,2 km/h (1 Bft) NO 315 0 min 0 W/m 4,1 C 5,6 C 6,1 km/h (2 Bft)
18/12/2011 12:10 5,9 C 90 % 1019,5 hPa 0,0 mm 3,6 km/h (1 Bft) NO 315 0 min 0 W/m 4,4 C 5,9 C 4,3 km/h (1 Bft)
18/12/2011 12:15 6,1 C 89 % 1019,5 hPa 0,0 mm 0,7 km/h (0 Bft) NO 315 0 min 0 W/m 4,4 C 6,1 C 3,2 km/h (1 Bft)
18/12/2011 12:20 6,3 C 89 % 1019,6 hPa 0,0 mm 2,2 km/h (1 Bft) O-NO 292 0 min 0 W/m 4,6 C 6,3 C 3,6 km/h (1 Bft)
18/12/2011 12:25 6,4 C 88 % 1019,6 hPa 0,0 mm 4,7 km/h (1 Bft) O-NO 292 0 min 0 W/m 4,6 C 5,8 C 9,0 km/h (2 Bft)
18/12/2011 12:30 6,6 C 88 % 1019,6 hPa 0,0 mm 2,5 km/h (1 Bft) NO 315 0 min 0 W/m 4,8 C 6,6 C 8,3 km/h (2 Bft)
18/12/2011 12:35 6,9 C 87 % 1019,7 hPa 0,0 mm 7,2 km/h (2 Bft) NO 315 0 min 0 W/m 4,9 C 5,6 C 10,1 km/h (2 Bft)
18/12/2011 12:40 6,9 C 87 % 1019,7 hPa 0,0 mm 8,3 km/h (2 Bft) NO 315 0 min 0 W/m 4,9 C 5,3 C 13,0 km/h (3 Bft)
18/12/2011 12:45 6,9 C 87 % 1019,7 hPa 0,0 mm 3,2 km/h (1 Bft) N-NO 337 0 min 0 W/m 4,9 C 6,9 C 10,1 km/h (2 Bft)
18/12/2011 12:50 7,1 C 87 % 1019,6 hPa 0,0 mm 9,7 km/h (2 Bft) N-NO 337 0 min 0 W/m 5,1 C 5,2 C 13,0 km/h (3 Bft)
18/12/2011 12:55 6,9 C 86 % 1019,6 hPa 0,0 mm 6,1 km/h (2 Bft) NO 315 0 min 0 W/m 4,7 C 5,9 C 8,3 km/h (2 Bft)
18/12/2011 13:00 6,8 C 85 % 1019,6 hPa 0,0 mm 0,0 km/h (0 Bft) N-NO 337 0 min 0 W/m 4,5 C 6,8 C 0,0 km/h (0 Bft)
18/12/2011 13:05 6,9 C 85 % 1019,6 hPa 0,0 mm 7,2 km/h (2 Bft) NO 315 0 min 0 W/m 4,6 C 5,6 C 10,8 km/h (2 Bft)
18/12/2011 13:10 7,2 C 85 % 1019,9 hPa 0,0 mm 7,2 km/h (2 Bft) NO 315 0 min 0 W/m 4,9 C 5,9 C 15,1 km/h (3 Bft)
18/12/2011 13:15 7,3 C 84 % 1019,9 hPa 0,0 mm 3,2 km/h (1 Bft) NO 315 0 min 0 W/m 4,8 C 7,3 C 9,7 km/h (2 Bft)
18/12/2011 13:20 7,5 C 83 % 1020,0 hPa 0,0 mm 5,8 km/h (2 Bft) NO 315 0 min 0 W/m 4,8 C 6,7 C 10,4 km/h (2 Bft)
18/12/2011 13:25 7,6 C 83 % 1019,8 hPa 0,0 mm 5,8 km/h (2 Bft) NO 315 0 min 0 W/m 4,9 C 6,8 C 9,0 km/h (2 Bft)
18/12/2011 13:30 7,6 C 81 % 1019,8 hPa 0,0 mm 2,5 km/h (1 Bft) O-NO 292 0 min 0 W/m 4,6 C 7,6 C 8,6 km/h (2 Bft)
18/12/2011 13:35 7,3 C 80 % 1019,7 hPa 0,0 mm 3,2 km/h (1 Bft) O-NO 292 0 min 0 W/m 4,1 C 7,3 C 7,6 km/h (2 Bft)
18/12/2011 13:40 7,1 C 80 % 1019,7 hPa 0,0 mm 3,2 km/h (1 Bft) O-SO 247 0 min 0 W/m 3,9 C 7,1 C 8,6 km/h (2 Bft)
18/12/2011 13:45 6,8 C 79 % 1019,6 hPa 0,0 mm 4,0 km/h (1 Bft) O-NO 292 0 min 0 W/m 3,4 C 6,8 C 6,1 km/h (2 Bft)
18/12/2011 13:50 6,6 C 81 % 1019,4 hPa 0,0 mm 5,0 km/h (1 Bft) O-SO 247 0 min 0 W/m 3,6 C 5,9 C 9,0 km/h (2 Bft)
18/12/2011 13:55 6,5 C 81 % 1019,4 hPa 0,0 mm 1,8 km/h (1 Bft) NO 315 0 min 0 W/m 3,5 C 6,5 C 1,8 km/h (1 Bft)
18/12/2011 14:00 6,8 C 82 % 1019,6 hPa 0,0 mm 4,0 km/h (1 Bft) N-NO 337 0 min 0 W/m 3,9 C 6,8 C 11,2 km/h (2 Bft)
18/12/2011 14:05 6,9 C 81 % 1019,8 hPa 0,0 mm 2,2 km/h (1 Bft) NO 315 0 min 0 W/m 3,9 C 6,9 C 7,6 km/h (2 Bft)
18/12/2011 14:10 6,9 C 80 % 1019,8 hPa 0,0 mm 0,7 km/h (0 Bft) O-SO 247 0 min 0 W/m 3,7 C 6,9 C 3,2 km/h (1 Bft)
18/12/2011 14:15 7,1 C 80 % 1019,8 hPa 0,0 mm 5,8 km/h (2 Bft) NO 315 0 min 0 W/m 3,9 C 6,2 C 9,7 km/h (2 Bft)
18/12/2011 14:20 7,3 C 80 % 1019,7 hPa 0,0 mm 14,8 km/h (3 Bft) N-NO 337 0 min 0 W/m 4,1 C 4,6 C 19,4 km/h (3 Bft)
18/12/2011 14:25 7,4 C 78 % 1019,7 hPa 0,0 mm 2,9 km/h (1 Bft) O-NO 292 0 min 0 W/m 3,8 C 7,4 C 7,2 km/h (2 Bft)
18/12/2011 14:30 7,5 C 78 % 1019,7 hPa 0,0 mm 5,0 km/h (1 Bft) NO 315 0 min 0 W/m 3,9 C 6,9 C 13,0 km/h (3 Bft)
18/12/2011 14:35 7,5 C 76 % 1019,6 hPa 0,0 mm 4,7 km/h (1 Bft) O-NO 292 0 min 0 W/m 3,5 C 7,0 C 4,7 km/h (1 Bft)
18/12/2011 14:40 7,4 C 76 % 1019,6 hPa 0,0 mm 7,9 km/h (2 Bft) N-NO 337 0 min 0 W/m 3,5 C 6,0 C 7,9 km/h (2 Bft)
18/12/2011 14:45 7,4 C 77 % 1019,6 hPa 0,0 mm 9,4 km/h (2 Bft) NO 315 0 min 0 W/m 3,6 C 5,6 C 15,1 km/h (3 Bft)
18/12/2011 14:50 7,3 C 76 % 1019,5 hPa 0,0 mm 6,1 km/h (2 Bft) N-NO 337 0 min 0 W/m 3,4 C 6,3 C 9,7 km/h (2 Bft)
18/12/2011 14:55 7,1 C 76 % 1019,4 hPa 0,0 mm 3,2 km/h (1 Bft) O-SO 247 0 min 0 W/m 3,2 C 7,1 C 7,6 km/h (2 Bft)
18/12/2011 15:00 6,9 C 75 % 1019,5 hPa 0,0 mm 4,7 km/h (1 Bft) O-NO 292 0 min 0 W/m 2,8 C 6,3 C 11,2 km/h (2 Bft)
18/12/2011 15:05 6,8 C 76 % 1019,5 hPa 0,0 mm 4,0 km/h (1 Bft) O-NO 292 0 min 0 W/m 2,9 C 6,8 C 7,2 km/h (2 Bft)
18/12/2011 15:10 6,8 C 76 % 1019,6 hPa 0,0 mm 1,8 km/h (1 Bft) O 270 0 min 0 W/m 2,9 C 6,8 C 2,9 km/h (1 Bft)
18/12/2011 15:15 6,6 C 76 % 1019,6 hPa 0,0 mm 3,6 km/h (1 Bft) NO 315 0 min 0 W/m 2,7 C 6,6 C 9,4 km/h (2 Bft)
18/12/2011 15:20 6,6 C 76 % 1019,5 hPa 0,0 mm 1,1 km/h (1 Bft) O-NO 292 0 min 0 W/m 2,7 C 6,6 C 6,1 km/h (2 Bft)
18/12/2011 15:25 6,6 C 76 % 1019,5 hPa 0,0 mm 3,6 km/h (1 Bft) N-NO 337 0 min 0 W/m 2,7 C 6,6 C 11,5 km/h (2 Bft)
18/12/2011 15:30 6,4 C 77 % 1019,5 hPa 0,0 mm 2,2 km/h (1 Bft) NO 315 0 min 0 W/m 2,7 C 6,4 C 6,1 km/h (2 Bft)
18/12/2011 15:35 6,2 C 77 % 1019,5 hPa 0,0 mm 1,4 km/h (1 Bft) N 360 0 min 0 W/m 2,5 C 6,2 C 2,9 km/h (1 Bft)
18/12/2011 15:40 5,9 C 77 % 1019,5 hPa 0,0 mm 1,1 km/h (1 Bft) O-NO 292 0 min 0 W/m 2,2 C 5,9 C 3,2 km/h (1 Bft)
18/12/2011 15:45 5,6 C 77 % 1019,5 hPa 0,0 mm 0,4 km/h (0 Bft) O-NO 292 0 min 0 W/m 1,9 C 5,6 C 0,4 km/h (0 Bft)
18/12/2011 15:50 5,3 C 78 % 1019,5 hPa 0,0 mm 0,0 km/h (0 Bft) O-NO 292 0 min 0 W/m 1,8 C 5,3 C 0,0 km/h (0 Bft)
18/12/2011 15:55 5,1 C 78 % 1019,5 hPa 0,0 mm 0,7 km/h (0 Bft) NO 315 0 min 0 W/m 1,6 C 5,1 C 0,7 km/h (0 Bft)
18/12/2011 16:00 4,9 C 79 % 1019,5 hPa 0,0 mm 0,0 km/h (0 Bft) O 270 0 min 0 W/m 1,6 C 4,9 C 0,0 km/h (0 Bft)
18/12/2011 16:05 4,8 C 79 % 1019,6 hPa 0,0 mm 0,7 km/h (0 Bft) NO 315 0 min 0 W/m 1,5 C 4,8 C 4,0 km/h (1 Bft)
18/12/2011 16:10 4,8 C 80 % 1019,5 hPa 0,0 mm 0,7 km/h (0 Bft) NO 315 0 min 0 W/m 1,6 C 4,8 C 4,0 km/h (1 Bft)
18/12/2011 16:15 4,8 C 80 % 1019,6 hPa 0,0 mm 0,0 km/h (0 Bft) NO 315 0 min 0 W/m 1,6 C 4,8 C 0,0 km/h (0 Bft)
18/12/2011 16:20 4,9 C 80 % 1019,6 hPa 0,0 mm 2,5 km/h (1 Bft) N-NO 337 0 min 0 W/m 1,7 C 4,9 C 4,0 km/h (1 Bft)
18/12/2011 16:25 4,9 C 80 % 1019,6 hPa 0,0 mm 2,9 km/h (1 Bft) NO 315 0 min 0 W/m 1,7 C 4,9 C 4,3 km/h (1 Bft)
18/12/2011 16:30 4,9 C 80 % 1019,6 hPa 0,0 mm 0,0 km/h (0 Bft) NO 315 0 min 0 W/m 1,7 C 4,9 C 0,0 km/h (0 Bft)
18/12/2011 16:35 5,1 C 80 % 1019,7 hPa 0,0 mm 0,0 km/h (0 Bft) NO 315 0 min 0 W/m 1,9 C 5,1 C 0,0 km/h (0 Bft)
18/12/2011 16:40 5,1 C 80 % 1019,8 hPa 0,0 mm 0,0 km/h (0 Bft) O 270 0 min 0 W/m 1,9 C 5,1 C 0,0 km/h (0 Bft)
18/12/2011 16:45 5,1 C 79 % 1019,8 hPa 0,0 mm 0,4 km/h (0 Bft) O 270 0 min 0 W/m 1,8 C 5,1 C 1,8 km/h (1 Bft)
18/12/2011 16:50 4,9 C 79 % 1019,9 hPa 0,0 mm 0,0 km/h (0 Bft) O 270 0 min 0 W/m 1,6 C 4,9 C 0,0 km/h (0 Bft)
18/12/2011 16:55 4,8 C 79 % 1019,9 hPa 0,0 mm 0,4 km/h (0 Bft) O 270 0 min 0 W/m 1,5 C 4,8 C 4,3 km/h (1 Bft)
18/12/2011 17:00 4,6 C 79 % 1020,0 hPa 0,0 mm 2,9 km/h (1 Bft) O 270 0 min 0 W/m 1,3 C 4,6 C 4,0 km/h (1 Bft)
18/12/2011 17:05 4,3 C 79 % 1020,1 hPa 0,0 mm 0,0 km/h (0 Bft) O 270 0 min 0 W/m 1,0 C 4,3 C 0,0 km/h (0 Bft)
18/12/2011 17:10 4,1 C 79 % 1020,0 hPa 0,0 mm 0,0 km/h (0 Bft) O-SO 247 0 min 0 W/m 0,8 C 4,1 C 0,0 km/h (0 Bft)
18/12/2011 17:15 3,8 C 80 % 1020,0 hPa 0,0 mm 0,0 km/h (0 Bft) O-SO 247 0 min 0 W/m 0,7 C 3,8 C 0,0 km/h (0 Bft)
18/12/2011 17:20 3,6 C 80 % 1020,0 hPa 0,0 mm 0,0 km/h (0 Bft) O-SO 247 0 min 0 W/m 0,5 C 3,6 C 0,0 km/h (0 Bft)
18/12/2011 17:25 3,3 C 81 % 1019,9 hPa 0,0 mm 0,0 km/h (0 Bft) O-SO 247 0 min 0 W/m 0,4 C 3,3 C 0,0 km/h (0 Bft)
18/12/2011 17:30 2,9 C 81 % 1019,9 hPa 0,0 mm 0,0 km/h (0 Bft) O-SO 247 0 min 0 W/m -0,0 C 2,9 C 0,0 km/h (0 Bft)
18/12/2011 17:35 2,8 C 82 % 1019,9 hPa 0,0 mm 0,0 km/h (0 Bft) O-SO 247 0 min 0 W/m 0,0 C 2,8 C 0,0 km/h (0 Bft)
18/12/2011 17:40 2,5 C 82 % 1019,8 hPa 0,0 mm 0,0 km/h (0 Bft) O-SO 247 0 min 0 W/m -0,3 C 2,5 C 0,0 km/h (0 Bft)
18/12/2011 17:45 2,3 C 83 % 1019,8 hPa 0,0 mm 0,0 km/h (0 Bft) SO 225 0 min 0 W/m -0,3 C 2,3 C 0,0 km/h (0 Bft)
18/12/2011 17:50 2,2 C 83 % 1019,8 hPa 0,0 mm 0,0 km/h (0 Bft) SO 225 0 min 0 W/m -0,4 C 2,2 C 0,0 km/h (0 Bft)
18/12/2011 17:55 1,9 C 84 % 1019,8 hPa 0,0 mm 0,0 km/h (0 Bft) SO 225 0 min 0 W/m -0,5 C 1,9 C 0,0 km/h (0 Bft)
18/12/2011 18:00 1,8 C 84 % 1019,8 hPa 0,0 mm 0,0 km/h (0 Bft) SO 225 0 min 0 W/m -0,6 C 1,8 C 0,0 km/h (0 Bft)
18/12/2011 18:05 1,6 C 85 % 1019,9 hPa 0,0 mm 0,0 km/h (0 Bft) SO 225 0 min 0 W/m -0,6 C 1,6 C 0,0 km/h (0 Bft)
18/12/2011 18:10 1,5 C 85 % 1019,9 hPa 0,0 mm 0,0 km/h (0 Bft) SO 225 0 min 0 W/m -0,7 C 1,5 C 0,0 km/h (0 Bft)
18/12/2011 18:15 1,3 C 85 % 1020,0 hPa 0,0 mm 0,0 km/h (0 Bft) SO 225 0 min 0 W/m -0,9 C 1,3 C 0,0 km/h (0 Bft)
18/12/2011 18:20 1,2 C 86 % 1020,1 hPa 0,0 mm 0,0 km/h (0 Bft) S-SO 202 0 min 0 W/m -0,9 C 1,2 C 0,0 km/h (0 Bft)
18/12/2011 18:25 1,0 C 86 % 1020,1 hPa 0,0 mm 0,0 km/h (0 Bft) S-SO 202 0 min 0 W/m -1,1 C 1,0 C 0,0 km/h (0 Bft)
18/12/2011 18:30 0,9 C 86 % 1020,1 hPa 0,0 mm 0,0 km/h (0 Bft) S-SO 202 0 min 0 W/m -1,2 C 0,9 C 0,0 km/h (0 Bft)
18/12/2011 18:35 0,8 C 87 % 1020,3 hPa 0,0 mm 0,0 km/h (0 Bft) S-SO 202 0 min 0 W/m -1,1 C 0,8 C 0,0 km/h (0 Bft)
18/12/2011 18:40 0,6 C 87 % 1020,4 hPa 0,0 mm 0,0 km/h (0 Bft) S-SO 202 0 min 0 W/m -1,3 C 0,6 C 0,0 km/h (0 Bft)
18/12/2011 18:45 0,4 C 87 % 1020,5 hPa 0,0 mm 0,0 km/h (0 Bft) O 270 0 min 0 W/m -1,5 C 0,4 C 0,0 km/h (0 Bft)
18/12/2011 18:50 0,4 C 88 % 1020,5 hPa 0,0 mm 0,0 km/h (0 Bft) O-SO 247 0 min 0 W/m -1,3 C 0,4 C 0,0 km/h (0 Bft)
18/12/2011 18:55 0,3 C 88 % 1020,5 hPa 0,0 mm 0,0 km/h (0 Bft) O-SO 247 0 min 0 W/m -1,4 C 0,3 C 0,0 km/h (0 Bft)
18/12/2011 19:00 0,3 C 88 % 1020,5 hPa 0,0 mm 0,0 km/h (0 Bft) SO 225 0 min 0 W/m -1,4 C 0,3 C 0,0 km/h (0 Bft)
18/12/2011 19:05 0,2 C 89 % 1020,7 hPa 0,0 mm 0,0 km/h (0 Bft) SO 225 0 min 0 W/m -1,4 C 0,2 C 0,0 km/h (0 Bft)
18/12/2011 19:10 0,1 C 89 % 1020,7 hPa 0,0 mm 0,0 km/h (0 Bft) SO 225 0 min 0 W/m -1,5 C 0,1 C 0,0 km/h (0 Bft)
18/12/2011 19:15 0,1 C 89 % 1020,8 hPa 0,0 mm 0,0 km/h (0 Bft) SO 225 0 min 0 W/m -1,5 C 0,1 C 0,0 km/h (0 Bft)
18/12/2011 19:20 0,1 C 89 % 1020,8 hPa 0,0 mm 0,0 km/h (0 Bft) SO 225 0 min 0 W/m -1,5 C 0,1 C 0,0 km/h (0 Bft)
18/12/2011 19:25 0,1 C 89 % 1020,8 hPa 0,0 mm 0,0 km/h (0 Bft) SO 225 0 min 0 W/m -1,5 C 0,1 C 0,0 km/h (0 Bft)
18/12/2011 19:30 -0,1 C 90 % 1020,9 hPa 0,0 mm 0,0 km/h (0 Bft) SO 225 0 min 0 W/m -1,5 C -0,1 C 0,0 km/h (0 Bft)
18/12/2011 19:35 -0,1 C 90 % 1020,9 hPa 0,0 mm 0,0 km/h (0 Bft) S-SO 202 0 min 0 W/m -1,5 C -0,1 C 0,0 km/h (0 Bft)
18/12/2011 19:40 -0,1 C 90 % 1020,9 hPa 0,0 mm 0,0 km/h (0 Bft) S-SO 202 0 min 0 W/m -1,5 C -0,1 C 0,0 km/h (0 Bft)
18/12/2011 19:45 -0,1 C 90 % 1020,9 hPa 0,0 mm 0,0 km/h (0 Bft) S-SO 202 0 min 0 W/m -1,5 C -0,1 C 0,0 km/h (0 Bft)
18/12/2011 19:50 0,0 C 90 % 1020,9 hPa 0,0 mm 0,0 km/h (0 Bft) S-SO 202 0 min 0 W/m -1,4 C 0,0 C 0,0 km/h (0 Bft)
18/12/2011 19:55 0,0 C 91 % 1020,8 hPa 0,0 mm 0,4 km/h (0 Bft) S-SO 202 0 min 0 W/m -1,3 C 0,0 C 0,4 km/h (0 Bft)
18/12/2011 20:00 0,1 C 91 % 1020,9 hPa 0,0 mm 0,4 km/h (0 Bft) S-SO 202 0 min 0 W/m -1,2 C 0,1 C 3,6 km/h (1 Bft)
18/12/2011 20:05 0,1 C 91 % 1020,7 hPa 0,0 mm 0,0 km/h (0 Bft) SO 225 0 min 0 W/m -1,2 C 0,1 C 0,0 km/h (0 Bft)
18/12/2011 20:10 0,0 C 91 % 1020,9 hPa 0,0 mm 0,0 km/h (0 Bft) SO 225 0 min 0 W/m -1,3 C 0,0 C 0,0 km/h (0 Bft)
18/12/2011 20:15 -0,1 C 91 % 1020,9 hPa 0,0 mm 0,0 km/h (0 Bft) SO 225 0 min 0 W/m -1,4 C -0,1 C 0,0 km/h (0 Bft)
18/12/2011 20:20 -0,2 C 91 % 1020,9 hPa 0,0 mm 0,0 km/h (0 Bft) S-SO 202 0 min 0 W/m -1,5 C -0,2 C 0,0 km/h (0 Bft)
18/12/2011 20:25 -0,2 C 91 % 1021,0 hPa 0,0 mm 0,0 km/h (0 Bft) S-SO 202 0 min 0 W/m -1,5 C -0,2 C 0,0 km/h (0 Bft)
18/12/2011 20:30 -0,2 C 91 % 1020,9 hPa 0,0 mm 0,0 km/h (0 Bft) SO 225 0 min 0 W/m -1,5 C -0,2 C 0,0 km/h (0 Bft)
18/12/2011 20:35 -0,3 C 91 % 1020,9 hPa 0,0 mm 0,0 km/h (0 Bft) SO 225 0 min 0 W/m -1,6 C -0,3 C 0,0 km/h (0 Bft)
18/12/2011 20:40 -0,3 C 91 % 1021,0 hPa 0,0 mm 0,0 km/h (0 Bft) SO 225 0 min 0 W/m -1,6 C -0,3 C 0,0 km/h (0 Bft)
18/12/2011 20:45 -0,2 C 92 % 1021,0 hPa 0,0 mm 0,4 km/h (0 Bft) S-SO 202 0 min 0 W/m -1,3 C -0,2 C 0,4 km/h (0 Bft)
18/12/2011 20:50 -0,2 C 92 % 1021,0 hPa 0,0 mm 0,0 km/h (0 Bft) S-SO 202 0 min 0 W/m -1,3 C -0,2 C 0,0 km/h (0 Bft)
18/12/2011 20:55 -0,1 C 92 % 1020,9 hPa 0,0 mm 0,0 km/h (0 Bft) S-SO 202 0 min 0 W/m -1,2 C -0,1 C 1,4 km/h (1 Bft)
18/12/2011 21:00 -0,1 C 92 % 1021,0 hPa 0,0 mm 0,0 km/h (0 Bft) SO 225 0 min 0 W/m -1,2 C -0,1 C 0,0 km/h (0 Bft)
18/12/2011 21:05 -0,1 C 92 % 1020,9 hPa 0,0 mm 0,0 km/h (0 Bft) SO 225 0 min 0 W/m -1,2 C -0,1 C 0,0 km/h (0 Bft)
18/12/2011 21:10 -0,2 C 92 % 1021,0 hPa 0,0 mm 0,0 km/h (0 Bft) SO 225 0 min 0 W/m -1,3 C -0,2 C 0,0 km/h (0 Bft)
18/12/2011 21:15 -0,2 C 93 % 1021,0 hPa 0,0 mm 0,0 km/h (0 Bft) S-SO 202 0 min 0 W/m -1,2 C -0,2 C 0,0 km/h (0 Bft)
18/12/2011 21:20 -0,2 C 93 % 1020,9 hPa 0,0 mm 2,9 km/h (1 Bft) SO 225 0 min 0 W/m -1,2 C -0,2 C 7,6 km/h (2 Bft)
18/12/2011 21:25 -0,1 C 93 % 1020,9 hPa 0,0 mm 2,5 km/h (1 Bft) SO 225 0 min 0 W/m -1,1 C -0,1 C 4,3 km/h (1 Bft)
18/12/2011 21:30 0,0 C 93 % 1020,9 hPa 0,0 mm 2,9 km/h (1 Bft) SO 225 0 min 0 W/m -1,0 C 0,0 C 4,0 km/h (1 Bft)
18/12/2011 21:35 0,1 C 93 % 1020,9 hPa 0,0 mm 0,0 km/h (0 Bft) S-SO 202 0 min 0 W/m -0,9 C 0,1 C 0,0 km/h (0 Bft)
18/12/2011 21:40 0,1 C 93 % 1020,9 hPa 0,0 mm 0,7 km/h (0 Bft) SO 225 0 min 0 W/m -0,9 C 0,1 C 1,4 km/h (1 Bft)
18/12/2011 21:45 0,2 C 93 % 1020,9 hPa 0,0 mm 1,1 km/h (1 Bft) O-SO 247 0 min 0 W/m -0,8 C 0,2 C 3,2 km/h (1 Bft)
18/12/2011 21:50 0,3 C 93 % 1020,9 hPa 0,0 mm 2,9 km/h (1 Bft) SO 225 0 min 0 W/m -0,7 C 0,3 C 2,9 km/h (1 Bft)
18/12/2011 21:55 0,3 C 93 % 1020,9 hPa 0,0 mm 0,4 km/h (0 Bft) SO 225 0 min 0 W/m -0,7 C 0,3 C 0,4 km/h (0 Bft)
18/12/2011 22:00 0,3 C 93 % 1020,9 hPa 0,0 mm 2,9 km/h (1 Bft) S-SO 202 0 min 0 W/m -0,7 C 0,3 C 4,0 km/h (1 Bft)
18/12/2011 22:05 0,4 C 93 % 1020,7 hPa 0,0 mm 0,7 km/h (0 Bft) SO 225 0 min 0 W/m -0,6 C 0,4 C 3,6 km/h (1 Bft)
18/12/2011 22:10 0,4 C 93 % 1020,7 hPa 0,0 mm 2,2 km/h (1 Bft) SO 225 0 min 0 W/m -0,6 C 0,4 C 2,2 km/h (1 Bft)
18/12/2011 22:15 0,5 C 93 % 1020,6 hPa 0,0 mm 2,5 km/h (1 Bft) SO 225 0 min 0 W/m -0,5 C 0,5 C 4,0 km/h (1 Bft)
18/12/2011 22:20 0,4 C 93 % 1020,6 hPa 0,0 mm 5,4 km/h (2 Bft) S-SO 202 0 min 0 W/m -0,6 C -1,3 C 6,5 km/h (2 Bft)
18/12/2011 22:25 0,5 C 93 % 1020,7 hPa 0,0 mm 2,5 km/h (1 Bft) S-SO 202 0 min 0 W/m -0,5 C 0,5 C 3,6 km/h (1 Bft)
18/12/2011 22:30 0,5 C 93 % 1020,8 hPa 0,0 mm 0,0 km/h (0 Bft) O-SO 247 0 min 0 W/m -0,5 C 0,5 C 0,0 km/h (0 Bft)
18/12/2011 22:35 0,5 C 93 % 1020,9 hPa 0,0 mm 0,0 km/h (0 Bft) SO 225 0 min 0 W/m -0,5 C 0,5 C 0,0 km/h (0 Bft)
18/12/2011 22:40 0,4 C 93 % 1020,9 hPa 0,0 mm 0,0 km/h (0 Bft) S-SO 202 0 min 0 W/m -0,6 C 0,4 C 0,0 km/h (0 Bft)
18/12/2011 22:45 0,4 C 93 % 1020,8 hPa 0,0 mm 0,0 km/h (0 Bft) S-SO 202 0 min 0 W/m -0,6 C 0,4 C 0,0 km/h (0 Bft)
18/12/2011 22:50 0,3 C 93 % 1020,8 hPa 0,0 mm 0,0 km/h (0 Bft) SO 225 0 min 0 W/m -0,7 C 0,3 C 0,0 km/h (0 Bft)
18/12/2011 22:55 0,4 C 93 % 1020,8 hPa 0,0 mm 0,7 km/h (0 Bft) SO 225 0 min 0 W/m -0,6 C 0,4 C 3,2 km/h (1 Bft)
_ Min-Heure 04:30 15:00 00:40 - 22:50 - - - - 20:40 22:20 22:50
Minimum _ -0,6 C 75 % 1014,9 hPa - 0,0 km/h (0 Bft) - - - - -1,6 C -1,3 C 0,0 km/h (0 Bft)
_ Max-Heure 13:30 11:00 21:15 22:55 14:20 - - 22:55 22:55 12:50 13:30 14:20
Maximum _ 7,6 C 96 % 1021,0 hPa 0,0 mm 14,8 km/h
N-NO (3 Bft)
- - 0 min 0 W/m 5,1 C 7,6 C 19,4 km/h
N-NO (3 Bft)
Moyenne _ 1,8 C 90 % 1018,3 hPa #0,0 mm 1,1 km/h (1 Bft) O-NO - #0 min. 0 W/m 0,3 C 1,7 C 2,5 km/h (1 Bft)
Saint Bonnet de Bellac- Haute Vienne - France